Tracking 29033 objects as of 22-Jun-2024
HD Live streaming from Space Station
objects crossing your sky now

STARLINK-6294

Track STARLINK-6294 now!
10-day predictions
STARLINK-6294 is classified as:


NORAD ID: 57225
Int'l Code: 2023-094H
Perigee: 565.4 km
Apogee: 567.1 km
Inclination: 43.0 °
Period: 95.8 minutes
Semi major axis: 6937 km
RCS: Unknown
Launch date: July 7, 2023
Source: United States (US)
Launch site: AIR FORCE WESTERN TEST RANGE (AFWTR)
Your satellite tracking list
Your tracking list is empty




NASA's NSSDC Master Catalog

Two Line Element Set (TLE):
1 57225U 23094H   24174.11531287 -.00000148  00000-0  41348-5 0  9994
2 57225  43.0022 189.8433 0001201 272.2420  87.8285 15.02532121 53258
Source of the keplerian elements: AFSPC